Regional Weather Roundup
Issued by NWS Wakefield, VA

Home | Current Version | Previous Version | Text Only | Print | Product List | Glossary Off
Versions: 1 2 3 4 5 6 7 8 9 10 11 12 13 14 15 16 17 18 19 20 21 22 23 24 25 26 27 28 29 30 31 32 33 34 35 36 37 38 39 40 41 42 43 44 45 46 47 48 49 50

000
ASUS41 KAKQ 191510
RWRAKQ

REGIONAL WEATHER ROUNDUP
NATIONAL WEATHER SERVICE WAKEFIELD VA
1100 AM EDT FRI SEP 19 2014

Note: "fair" indicates few or no clouds below 12,000 feet with no
significant weather and/or obstructions to visibility. * = Denotes
station may not report precipitation (e.g., rain,snow,etc.),
thunder or fog.

VAZ042-051-052>054-056-191600-
NORTHERN VIRGINIA

CITY           SKY/WX    TMP DP  RH WIND       PRES   REMARKS
WASH NATIONAL  MOSUNNY   70  55  59 NE8       30.27R
DULLES         PTSUNNY   62  53  72 NE6       30.27S
FORT BELVOIR   NOT AVBL
QUANTICO       MOSUNNY   68  57  68 NE7       30.27R
FREDERICKSBRG* PTSUNNY   69  59  72 NE6       30.25R
STAFFORD*      SUNNY     67  57  70 NE7       30.30R
WARRENTON      SUNNY     69  60  73 E5        30.26S
CULPEPER*      SUNNY     66  54  63 NE5       30.27S
MANASSAS*      PTSUNNY   66  55  68 CALM      30.27R
LEESBURG*      CLOUDY    63  55  77 CALM      30.29R
WINCHESTER     PTSUNNY   63  52  67 NE3       30.28R
FRONT ROYAL*   MOSUNNY   63  52  67 NE7       30.26F
LURAY*         PTSUNNY   64  54  68 NE6       30.26R
$$

VAZ048-049-060>072-079>083-191600-
CENTRAL AND SOUTH CENTRAL VIRGINIA...AND NORTH CENTRAL NORTH CAROLINA

CITY           SKY/WX    TMP DP  RH WIND       PRES   REMARKS
RICHMOND       PTSUNNY   72  58  61 VRB5      30.24R
CHESTERFIELD*  CLOUDY   N/A N/A N/A NE3       30.25S
PETERSBURG*    CLOUDY    67  59  77 E6        30.24S
HANOVER        CLOUDY    70  61  73 CALM      30.26R
TAPPAHANNOCK*  PTSUNNY   71  59  66 E5        30.25R
CHARLOTTSVILLE CLOUDY    63  54  72 NE7       30.26R
ORANGE*        CLOUDY    64  55  72 N7        30.28R
LOUISA*        CLOUDY    64  61  88 E3        30.24S FOG
FARMVILLE*     CLOUDY    64  63  94 E5        30.23R
CREWE*         CLOUDY    62  59  89 CALM      30.25R
FORT PICKETT*  CLOUDY    64  61  88 NE3       30.24R
LUNENBURG*     CLOUDY    64  62  92 N3        30.24R
SOUTH HILL*    PTSUNNY   68  64  88 N3        30.28R
LAWRENCEVILLE* CLOUDY    65  62  87 NE3       30.23R
ROANOKE RAPIDS MOSUNNY   73  61  64 E8        30.21S
RALEIGH        PTSUNNY   73  55  53 E10       30.19S
$$

VAZ088>098-191600-
SOUTHEAST VIRGINIA

CITY           SKY/WX    TMP DP  RH WIND       PRES   REMARKS
NORFOLK        MOSUNNY   73  56  54 E8        30.22R
VIRGINIA BEACH PTSUNNY   75  59  57 E9        30.22R
NORFOLK NAVAL  PTSUNNY   76  58  53 E9        30.24R
WEST POINT*    CLOUDY    74  61  63 NE6       30.25R
NEWPORT NEWS   MOSUNNY   78  56  46 E8        30.23R
LANGLEY AFB    NOT AVBL
FORT EUSTIS    NOT AVBL
WILLIAMSBURG*  MOSUNNY   77  64  65 CALM      30.24S
HR EXEC AP*    PTSUNNY   77  61  57 E7        30.24R
FRANKLIN*      PTSUNNY   73  61  64 E5        30.22S
WAKEFIELD      CLOUDY    72  61  68 CALM      30.23R
$$

VAZ020-022-025-037-045-191600-
WEST CENTRAL AND SOUTHWEST VIRGINIA

CITY           SKY/WX    TMP DP  RH WIND       PRES   REMARKS
STAUNTON*      CLOUDY    62  50  64 CALM      30.28R
HOT SPRINGS VA CLOUDY    51  42  71 E6        30.30R HAZE
LYNCHBURG      CLOUDY    62  61  96 NE3       30.26R
DANVILLE       CLOUDY    66  60  81 E5        30.23R
SOUTH BOSTON*  NOT AVBL
MARTINSVILLE   CLOUDY    65  64  97 E3        30.25R
ROANOKE        LGT RAIN  63  58  83 E3        30.25R
BLACKSBURG     CLOUDY    64  64 100 E8        30.25R FOG
DUBLIN*        CLOUDY    66  64  91 E5        30.24S
MARION*        PTSUNNY   66  61  82 NE6       30.24S
HILLSVILLE*    CLOUDY    65  60  84 SE5       30.24R
RICHLANDS*     SUNNY     71  60  68 SE9       30.19R
WISE*          SUNNY     70  55  60 S10       30.20R
ABINGDON*      SUNNY     72  61  68 SE3       30.18R
$$

MDZ021>025-VAZ099-100-191600-
SOUTHERN MARYLAND AND THE DELMARVA PENINSULA

CITY           SKY/WX    TMP DP  RH WIND       PRES   REMARKS
PATUXENT RIVER PTSUNNY   69  58  67 VRB5      30.25R
BAY BRIDGE APT   N/A     66  54  63 E6        30.27S
LEONARDTOWN    PTSUNNY   68  57  68 CALM      30.27R
DOVER          NOT AVBL
GEORGETOWN     MOSUNNY   71  61  70 E13       30.25S
EASTON         MOSUNNY   68  59  73 E7        30.29S
CAMBRIDGE      SUNNY     72  61  68 N6        30.25S
SALISBURY      SUNNY     74  59  59 NE6       30.24R
OCEAN CITY     MOSUNNY   73  60  63 E8        30.23S
WALLOPS ISLAND SUNNY     73  61  65 E12       30.24R
ACCOMACK*      PTSUNNY   73  55  53 E3        30.23R
$$

NCZ012>017-030>032-191600-
EASTERN NORTH CAROLINA

CITY           SKY/WX    TMP DP  RH WIND       PRES   REMARKS
ELIZABETH CITY MOSUNNY   75  60  59 NE12      30.21R
AHOSKIE*       SUNNY     72  61  67 E3        30.22R
EDENTON*       MOSUNNY   76  62  62 NE8       30.20S
CURRITUCK*     MOSUNNY   76  56  50 E8        30.23R
KILL DEVIL HLS SUNNY     76  57  51 E9G16     30.19S
MANTEO         SUNNY     75  58  57 E12       30.20S
CAPE HATTERAS  MOSUNNY   75  61  61 NE13G22   30.17R
TARBORO*       PTSUNNY   77  61  58 E7        30.20S
GOLDSBORO      NOT AVBL
WASHINGTON     MOSUNNY   74  61  63 E10G17    30.19S
GREENVILLE     PTSUNNY   77  61  57 E8        30.20R
NEW BERN       PTSUNNY   78  61  55 E10       30.18R
WILMINGTON     PTSUNNY   77  66  68 E14G23    30.13S
$$

VAZ048-191600-
ELSEWHERE

CITY           SKY/WX    TMP DP  RH WIND       PRES   REMARKS
HARRISBURG PA  PTSUNNY   63  47  55 NE6       30.29F
BALTIMORE      PTSUNNY   65  53  65 E9        30.27S
ANNAPOLIS      PTSUNNY   65  55  70 E7        30.27R
ANDREWS AFB    NOT AVBL
WILMINGTON DE  MOSUNNY   65  54  67 NE15      30.30R
PHILADELPHIA   CLOUDY    64  52  64 E13       30.31R
WILDWOOD NJ*   PTSUNNY   70  57  64 NE15G24   30.26R
ATLANTIC CITY  CLOUDY    66  56  70 E16G24    30.28R
HENDERSON NC   CLOUDY    70  59  69 E6        30.22S HAZE
GREENSBORO     PTSUNNY   68  60  75 E5        30.20R
ROCKY MOUNT    PTSUNNY   76  59  55 E8        30.19S
FAYETTEVILLE   CLOUDY    73  61  65 NE6       30.16R
CHARLOTTE      CLOUDY    72  61  68 E8        30.18R
$$

VAZ100-191600-
MARINE

STATION/POSITION TIME  TEMP    WIND        PRES    WAVE   SWELL
                       AIR SEA DIR/SP/G            HT/PER HT/PER
                 (UTC) (F)     (DEG/KT/KT) (MB)    (FT/S) (FT/S)
44066 TX TWR #4  1500   66 72   50/ 21/ 25 1024.2R   7/ 6   2/10
CAPE MAY NJ      1500   69 75   70/ 14/ 22 1023.8R
LEWES DE         1500   69 71   70/ 23/ 26 1023.6S
15NM E FENWICK I 1500   70 72              1023.5R   2/10
OCEAN-CITY-INLET 1500   72 72   80/  6/ 10 1023.4F
WACHAPREAGUE VA  1500   72 72   60/  8/ 10 1023.6R
THOMAS POINT MD  1500   63 74   50/  7/  8 1026.0R
GOOSES REEF MD   1500   64      50/ 10/ 12 1024.9R
COVE POINT MD    1500   64      40/  7/  9 1024.2S
SOLOMONS ISLAND  1500      75                N/A
BISHOPS HEAD MD  1500   69 71   60/  7/ 11 1023.5R
PINEY POINT MD   1500           60/  5/  6   N/A
POTOMAC MD       1500   69      60/  8/ 10 1023.3R
CAMBRIDGE MD     1500   66 73   70/  8/ 11 1024.0F
LEWISETTA VA     1500   69 73   70/  5/  7 1023.8R
RAPPAHANNOCK LGT 1500           40/  6/  7 1023.9S
STINGRAY PT      1500   72      50/  4/  6   N/A
YORK RVR RNG VA  1500   73      90/  6/  7 1023.1R
YORKTOWN VA      1500   72 76   70/  6/  8 1023.3R
JAMESTOWN VA     1500   70      50/  4/  6   N/A
DOMINION TERM VA 1500   74     100/  3/  7 1023.4R
KIPTOPEKE VA     1500      78   60/  7/ 11   N/A
CHES BAY BRIDGE  1500   72 75   60/ 11/ 12 1022.9R
CAPE HENRY VA    1500   72      80/ 10/ 12 1022.2R
CHESAPEAKE LGHT  1400   71      70/ 10/ 11 1023.8R
WILLOUBY STN VA  1500   72     100/  9/ 10 1022.1R
S CRANEY ISL VA  1500           40/  8/ 11 1023.1R
CAPE HENRY BUOY  1500      75                N/A     3/11   2/11
1ST LANDING BUOY 1500   73      90/  8/ 12 1023.0R
CAPE CHARLES BUO 1500      74                N/A     3/11   2/11
OFFSHORE WE BUOY 1500      74                N/A     3/10   3/10
64NM E OF VA BCH 1500   73 76   60/ 14/ 17 1022.5R   4/ 7   3/ 7
DUCK PIER NC     1500   73 75   70/ 14/ 17 1022.3R
44100 DUCK FRF   1400      74                N/A     4/11   2/11
44056 DUCK FRF   1500                        N/A     3/10   2/11
OREGON INLET NC  1500   74 73   40/ 12/ 18 1022.1F
HATTERAS NC      1500   75 75   40/ 12/ 18 1022.0R
DIAMOND SHLS NC  1500   78      60/ 19/ 23 1020.5S   6/ 7   3/ 9
CAPE LOOKOUT NC  1400   75      50/ 22/ 24 1020.3S
$$



USA.gov is the U.S. government's official web portal to all federal, state and local government web resources and services.